HappyWetter - St.Margarethen im Burgenland
Wetterdaten: aktuell Freitag, 14.12.2018 15:48
Datum Zeit Temp. A. Feuchte A. Luftdruck Regen Wind Richtung Richtung Sonnenschein ET Solar Taupunkt Windchill Windben Empfang
14.12.2018 15:48 -0,9 C 94 % 1022,5 hPa 0,0 l/m 0,0 km/h (0 Bft) W 281 0 min 0,000 mm 0 W/m -1,7 C -0,9 C 0,0 km/h (0 Bft) 96,00 %
14.12.2018 14:48 -0,9 C 94 % 1022,4 hPa 0,0 l/m 0,0 km/h (0 Bft) W 281 0 min 0,000 mm 11 W/m -1,7 C -0,9 C 0,0 km/h (0 Bft) 100,00 %
14.12.2018 13:48 -1,2 C 94 % 1022,4 hPa 0,0 l/m 0,0 km/h (0 Bft) W 281 0 min 0,000 mm 39 W/m -2,0 C -1,2 C 0,0 km/h (0 Bft) 100,00 %
14.12.2018 12:48 -1,4 C 94 % 1022,7 hPa 0,0 l/m 0,0 km/h (0 Bft) W 281 0 min 0,025 mm 30 W/m -2,2 C -1,4 C 0,0 km/h (0 Bft) 100,00 %
14.12.2018 11:48 -1,6 C 94 % 1023,0 hPa 0,0 l/m 0,0 km/h (0 Bft) W 281 0 min 0,000 mm 25 W/m -2,4 C -1,6 C 0,0 km/h (0 Bft) 96,00 %
14.12.2018 10:48 -1,9 C 94 % 1023,3 hPa 0,0 l/m 0,0 km/h (0 Bft) W 281 0 min 0,000 mm 37 W/m -2,7 C -1,9 C 0,0 km/h (0 Bft) 100,00 %
14.12.2018 09:48 -2,1 C 94 % 1023,2 hPa 0,0 l/m 0,0 km/h (0 Bft) W 281 0 min 0,000 mm 30 W/m -2,9 C -2,1 C 0,0 km/h (0 Bft) 96,00 %
14.12.2018 08:48 -2,4 C 94 % 1022,9 hPa 0,0 l/m 0,0 km/h (0 Bft) W 281 0 min 0,000 mm 25 W/m -3,2 C -2,4 C 0,0 km/h (0 Bft) 100,00 %
14.12.2018 07:48 -2,4 C 94 % 1022,5 hPa 0,0 l/m 0,0 km/h (0 Bft) W 281 0 min 0,000 mm 0 W/m -3,2 C -2,4 C 0,0 km/h (0 Bft) 95,83 %
14.12.2018 06:48 -2,6 C 94 % 1021,9 hPa 0,0 l/m 0,0 km/h (0 Bft) W 281 0 min 0,000 mm 0 W/m -3,4 C -2,6 C 0,0 km/h (0 Bft) 95,83 %
14.12.2018 05:48 -2,5 C 94 % 1021,7 hPa 0,0 l/m 0,0 km/h (0 Bft) W 281 0 min 0,000 mm 0 W/m -3,3 C -2,5 C 0,0 km/h (0 Bft) 100,00 %
14.12.2018 04:48 -2,3 C 94 % 1021,3 hPa 0,0 l/m 0,0 km/h (0 Bft) W 281 0 min 0,000 mm 0 W/m -3,1 C -2,3 C 0,0 km/h (0 Bft) 100,00 %
14.12.2018 03:47 -2,2 C 93 % 1021,4 hPa 0,0 l/m 0,0 km/h (0 Bft) W 280 0 min 0,000 mm 0 W/m -3,2 C -2,2 C 0,0 km/h (0 Bft) 100,00 %
14.12.2018 02:47 -1,9 C 94 % 1021,5 hPa 0,0 l/m 0,0 km/h (0 Bft) W 279 0 min 0,000 mm 0 W/m -2,7 C -1,9 C 0,0 km/h (0 Bft) 100,00 %
14.12.2018 01:47 -1,8 C 93 % 1021,5 hPa 0,0 l/m 0,0 km/h (0 Bft) W 279 0 min 0,000 mm 0 W/m -2,8 C -1,8 C 0,0 km/h (0 Bft) 100,00 %
14.12.2018 00:47 -1,8 C 93 % 1021,5 hPa 0,0 l/m 0,0 km/h (0 Bft) W 279 0 min 0,000 mm 0 W/m -2,8 C -1,8 C 0,0 km/h (0 Bft) 100,00 %
13.12.2018 23:47 -1,6 C 93 % 1021,5 hPa 0,0 l/m 0,0 km/h (0 Bft) W 279 0 min 0,000 mm 0 W/m -2,6 C -1,6 C 0,0 km/h (0 Bft) 100,00 %
13.12.2018 22:47 -1,5 C 93 % 1021,7 hPa 0,0 l/m 4,2 km/h (1 Bft) W 279 0 min 0,000 mm 0 W/m -2,5 C -1,5 C 6,4 km/h (2 Bft) 100,00 %
13.12.2018 21:47 -1,4 C 93 % 1021,5 hPa 0,0 l/m 0,0 km/h (0 Bft) W 279 0 min 0,000 mm 0 W/m -2,4 C -1,4 C 0,0 km/h (0 Bft) 95,83 %
13.12.2018 20:47 -1,2 C 92 % 1021,2 hPa 0,0 l/m 0,0 km/h (0 Bft) W 279 0 min 0,000 mm 0 W/m -2,3 C -1,2 C 0,0 km/h (0 Bft) 100,00 %
13.12.2018 19:47 -1,2 C 93 % 1020,9 hPa 0,0 l/m 0,0 km/h (0 Bft) W 279 0 min 0,000 mm 0 W/m -2,2 C -1,2 C 0,0 km/h (0 Bft) 92,00 %
13.12.2018 18:47 -1,2 C 93 % 1020,8 hPa 0,0 l/m 0,0 km/h (0 Bft) W 279 0 min 0,000 mm 0 W/m -2,2 C -1,2 C 0,0 km/h (0 Bft) 100,00 %
13.12.2018 17:47 -1,1 C 92 % 1020,5 hPa 0,0 l/m 0,0 km/h (0 Bft) W 279 0 min 0,000 mm 0 W/m -2,2 C -1,1 C 0,0 km/h (0 Bft) 96,00 %
13.12.2018 16:47 -0,9 C 92 % 1020,6 hPa 0,0 l/m 0,0 km/h (0 Bft) W 279 0 min 0,000 mm 0 W/m -2,0 C -0,9 C 0,0 km/h (0 Bft) 100,00 %
13.12.2018 16:00 -0,7 C 93 % 1020,6 hPa 0,0 l/m 0,0 km/h (0 Bft) W 279 0 min 0,000 mm 0 W/m -1,7 C -0,7 C 0,0 km/h (0 Bft) 100,00 %
_ Min-Zeit 07:14 20:51 16:17 - 15:48 - - - - - 07:14 02:59 15:48 21:56
Minimum _ -2,6 C 92 % 1020,4 hPa - 0,0 km/h (0 Bft) - - - - - -3,4 C -3,2 C 0,0 km/h (0 Bft) 75,00 %
_ Max-Zeit 16:00 14:15 10:19 15:48 02:59 - - 15:48 12:01 11:17 16:01 16:01 02:59 15:47
Maximum _ -0,6 C 95 % 1023,5 hPa 0,0 l/m 7,6 km/h
W (2 Bft)
- - 0 min 0,025 mm 88 W/m -1,6 C -0,6 C 14,5 km/h
W (3 Bft)
100,00 %
Durchschnitt _ -1,6 C 93 % 1021,7 hPa #0,0 l/m 0,4 km/h (0 Bft) W - #0 min. #0,025 mm 27 W/m -2,5 C -1,6 C 0,7 km/h (0 Bft) 98,69 %